DL2AMT-9 Weather Reports


time (UTC)temp
C
wind
direction
speed
KPH
gust
KPH
rain 1hr
cm
rain 24hr
cm
rain mn
cm
humidity
%
barometer
mb
20260505173309 30 0.0 0.0 0.00 0.00 0.00 37 960.7
20260505172809 30 0.0 0.0 0.00 0.00 0.00 37 960.8
20260505172310 30 0.0 0.0 0.00 0.00 0.00 35 960.7
20260505171809 30 0.0 0.0 0.00 0.00 0.00 35 960.7
20260505171309 29 0.0 0.0 0.00 0.00 0.00 35 960.6
20260505170809 29 0.0 0.0 0.00 0.00 0.00 34 960.6
20260505170309 29 0.0 0.0 0.00 0.00 0.00 34 960.6
20260505165809 29 0.0 0.0 0.00 0.00 0.00 34 960.7
20260505165309 29 0.0 0.0 0.00 0.00 0.00 34 960.7
20260505164809 29 0.0 0.0 0.00 0.00 0.00 34 960.7
20260505164309 30 0.0 0.0 0.00 0.00 0.00 35 960.8
20260505163809 30 0.0 0.0 0.00 0.00 0.00 34 960.8
20260505163309 30 0.0 0.0 0.00 0.00 0.00 35 961.0
20260505162809 30 0.0 0.0 0.00 0.00 0.00 33 960.9
20260505162308 30 0.0 0.0 0.00 0.00 0.00 33 961.0
20260505161808 30 0.0 0.0 0.00 0.00 0.00 32 961.1
20260505161308 30 0.0 0.0 0.00 0.00 0.00 32 961.1
20260505160808 31 0.0 0.0 0.00 0.00 0.00 31 961.2
20260505160308 32 0.0 0.0 0.00 0.00 0.00 30 961.2
20260505124819 31 0.0 0.0 0.00 0.00 0.00 35 962.6
20260505124319 31 0.0 0.0 0.00 0.00 0.00 35 962.6
20260505123819 31 0.0 0.0 0.00 0.00 0.00 35 962.7
20260505123319 31 0.0 0.0 0.00 0.00 0.00 35 962.7
20260505122819 31 0.0 0.0 0.00 0.00 0.00 35 962.8
20260505122319 31 0.0 0.0 0.00 0.00 0.00 36 962.9
20260505121819 31 0.0 0.0 0.00 0.00 0.00 36 963.0
20260505121319 30 0.0 0.0 0.00 0.00 0.00 37 962.9
20260505120819 30 0.0 0.0 0.00 0.00 0.00 36 962.9
20260505120318 30 0.0 0.0 0.00 0.00 0.00 36 963.0
20260505115818 30 0.0 0.0 0.00 0.00 0.00 37 963.1
20260505115318 30 0.0 0.0 0.00 0.00 0.00 36 963.2
20260505114818 30 0.0 0.0 0.00 0.00 0.00 36 963.2
20260505114317 30 0.0 0.0 0.00 0.00 0.00 36 963.2
20260505113817 30 0.0 0.0 0.00 0.00 0.00 36 963.1
20260505113317 30 0.0 0.0 0.00 0.00 0.00 37 963.3
20260505112817 30 0.0 0.0 0.00 0.00 0.00 37 963.2
20260505112317 30 0.0 0.0 0.00 0.00 0.00 37 963.3
20260505111817 30 0.0 0.0 0.00 0.00 0.00 37 963.3
20260505111317 30 0.0 0.0 0.00 0.00 0.00 38 963.4
20260505110817 29 0.0 0.0 0.00 0.00 0.00 37 963.4
20260505110317 29 0.0 0.0 0.00 0.00 0.00 37 963.4
20260505101812 33 0.0 0.0 0.00 0.00 0.00 34 964.1
20260505092738 30 0.0 0.0 0.00 0.00 0.00 37 970.0
20260505090737 29 0.0 0.0 0.00 0.00 0.00 36 970.1
20260505084725 30 0.0 0.0 0.00 0.00 0.00 39 964.4
20260505084217 29 0.0 0.0 0.00 0.00 0.00 39 964.4
20260505083717 29 0.0 0.0 0.00 0.00 0.00 38 964.4
20260505083217 29 0.0 0.0 0.00 0.00 0.00 38 964.5
20260505082717 29 0.0 0.0 0.00 0.00 0.00 38 964.4
20260505082216 29 0.0 0.0 0.00 0.00 0.00 38 964.4
20260505081716 29 0.0 0.0 0.00 0.00 0.00 38 964.4
20260505081216 28 0.0 0.0 0.00 0.00 0.00 38 964.4
20260505080716 28 0.0 0.0 0.00 0.00 0.00 38 964.4
20260505080216 29 0.0 0.0 0.00 0.00 0.00 39 964.3
20260505075716 29 0.0 0.0 0.00 0.00 0.00 40 964.4
20260505075216 29 0.0 0.0 0.00 0.00 0.00 41 964.4
20260505074716 28 0.0 0.0 0.00 0.00 0.00 39 964.6
20260505074216 28 0.0 0.0 0.00 0.00 0.00 40 964.4
20260505073716 28 0.0 0.0 0.00 0.00 0.00 40 964.4